Regional Weather Roundup
Issued by NWS

Home | Current Version | Previous Version | Graphics & Text | Print | Product List | Glossary On
Versions: 1 2 3 4 5 6 7 8 9 10 11 12 13 14 15 16 17 18 19 20 21 22 23 24 25 26 27 28 29 30 31 32 33 34 35 36 37 38 39 40 41 42 43 44 45 46 47 48 49 50
000
ASUS43 KOAX 170602
RWRNE

WEATHER ROUNDUP FOR NEBRASKA
NATIONAL WEATHER SERVICE OMAHA NE
100 AM CDT TUE OCT 17 2017

NOTES: SATELLITE DATA IS BEING USED TO AUGMENT CLOUD COVER ABOVE
       12000 FEET.
       "FAIR" INDICATES FEW OR NO CLOUDS BELOW 12,000 FEET WITH NO
       SIGNIFICANT WEATHER AND/OR OBSTRUCTIONS TO VISIBILITY.


NEZ001>004-019>022-054>056-170700-
NEBRASKA PANHANDLE

CITY           SKY/WX    TMP DP  RH WIND       PRES   REMARKS
SCOTTSBLUFF    CLOUDY    37  26  64 N3        30.19S
6HR MIN TEMP:  35; 6HR MAX TEMP:  63;

ALLIANCE       CLOUDY    30  25  81 W9        30.17S WCI  22
6HR MIN TEMP:  30; 6HR MAX TEMP:  63;

CHADRON        CLEAR     40  27  59 SW5       30.14R
6HR MIN TEMP:  37; 6HR MAX TEMP:  61;

GORDON         FAIR      35  29  79 CALM      30.14S
6HR MIN TEMP:  34; 6HR MAX TEMP:  62;

KIMBALL        CLOUDY    41  24  51 W8        30.24S
SIDNEY         CLOUDY    37  26  64 NW8       30.21S WCI  31
6HR MIN TEMP:  33; 6HR MAX TEMP:  64;

$$

NEZ057>060-069>072-079>082-170700-
SOUTHWEST NEBRASKA

CITY           SKY/WX    TMP DP  RH WIND       PRES   REMARKS
NORTH PLATTE   CLEAR     40  35  83 NW3       30.12S
6HR MIN TEMP:  39; 6HR MAX TEMP:  62;

IMPERIAL       CLEAR     48  28  46 NW9       30.15S
6HR MIN TEMP:  45; 6HR MAX TEMP:  71;

MCCOOK         CLOUDY    52  38  58 W6        30.11R
6HR MIN TEMP:  50; 6HR MAX TEMP:  68;

$$

NEZ005>010-023>029-035>040-094-170700-
NORTH CENTRAL NEBRASKA

CITY           SKY/WX    TMP DP  RH WIND       PRES   REMARKS
VALENTINE      CLEAR     38  32  79 W6        30.10S WCI  33
6HR MIN TEMP:  38; 6HR MAX TEMP:  67;

AINSWORTH      CLEAR     43  36  76 W7        30.09R
BROKEN BOW     CLEAR     43  35  73 CALM      30.07S
6HR MIN TEMP:  40; 6HR MAX TEMP:  66;

O`NEILL        CLEAR     44  40  86 CALM      30.05R
ORD            CLEAR     40  34  79 CALM      30.05F
6HR MIN TEMP:  40; 6HR MAX TEMP:  63;

$$

NEZ041-046>049-061>064-073>077-083>087-170700-
SOUTH CENTRAL NEBRASKA

CITY           SKY/WX    TMP DP  RH WIND       PRES   REMARKS
GRAND ISLAND   CLEAR     55  38  52 S14       30.08F
6HR MIN TEMP:  55; 6HR MAX TEMP:  64;

AURORA         CLEAR     54  38  55 S14       30.08F
HASTINGS       CLEAR     54  37  52 S9        30.10F
6HR MIN TEMP:  51; 6HR MAX TEMP:  68;

HEBRON         CLEAR     56  40  54 S10       30.14S
HOLDREGE       CLOUDY    51  37  59 SW6       30.09F
KEARNEY        CLEAR     50  37  61 S9        30.09S
YORK           PTCLDY    54  39  58 S10       30.10S
$$

NEZ011>018-030>034-042>045-170700-
NORTHEAST NEBRASKA

CITY           SKY/WX    TMP DP  RH WIND       PRES   REMARKS
NORFOLK        CLEAR     54  38  54 S12       30.04F
6HR MIN TEMP:  54; 6HR MAX TEMP:  64;

ALBION         CLEAR     52  38  59 S5        30.06F
BLAIR          CLEAR     56  41  58 S12       30.10S
COLUMBUS       PTCLDY    56  39  53 S12       30.08F
FREMONT        CLEAR     57  40  52 S7        30.09F
TEKAMAH        CLEAR     56  32  40 S9        30.08S
6HR MIN TEMP:  55; 6HR MAX TEMP:  62;

WAYNE          CLEAR     51  37  57 SW9       30.04F
$$

NEZ050>053-065>068-078-088>093-170700-
SOUTHEAST NEBRASKA

CITY           SKY/WX    TMP DP  RH WIND       PRES   REMARKS
LINCOLN        PTCLDY    57  40  52 S14       30.12S
6HR MIN TEMP:  53; 6HR MAX TEMP:  62;

OMAHA EPPLEY   PTCLDY    52  41  66 S12       30.12S
6HR MIN TEMP:  52; 6HR MAX TEMP:  68;

BEATRICE       PTCLDY    56  41  57 S12       30.15S
FALLS CITY     CLEAR     52  40  63 S7        30.17S
6HR MIN TEMP:  52; 6HR MAX TEMP:  65;

NEBRASKA CITY  PTCLDY    52  41  67 S9        30.15R
PLATTSMOUTH    PTCLDY    53  42  65 S10       30.13S
$$

NEZ044-045-051>053-067-170700-
OMAHA AREA

CITY           SKY/WX    TMP DP  RH WIND       PRES   REMARKS
OMAHA EPPLEY   PTCLDY    52  41  66 S12       30.12S
6HR MIN TEMP:  52; 6HR MAX TEMP:  68;

BLAIR          CLEAR     56  41  58 S12       30.10S
FREMONT        CLEAR     57  40  52 S7        30.09F
OFFUTT AFB     CLEAR     48  41  76 E6        30.12S
PLATTSMOUTH    PTCLDY    53  42  65 S10       30.13S
WAHOO          FAIR      56  40  54 S9        30.09F
$$



USA.gov is the U.S. government's official web portal to all federal, state and local government web resources and services.